Weather in Chernatske

Ukraine / Sumi District     52°10′47″N   33°55′21″E
temp.,
°C
wind,
m/s
gust,
m/s
humid.,
%
clouds,
%
prec.,
mm/h
press.,
hPa
HPBL,
m
8 may, sat
sat800:00+9sse71588100 2.9 1009618
03:00+9sse51196100 6.7 1007561
06:00+10sse61295100 2.9 1004576
09:00+10ssw51098100 6.3 1003681
12:00+10nw2494100 3.1 1003278
15:00+9w4794100 3.4 1004485
18:00+5wnw81396100 2.1 1007844
21:00+5wnw71296100 6.2 10101084
9 may, sun
sun900:00+5wnw7129194 2.4 1012880
03:00+3wnw5148899 2.4 1015530
06:00+2wnw514885 0.0 1017490
09:00+6nw711675 0.0 10191113
12:00+10nw795199 0.1 10202134
15:00+11nw7943100 0.1 10212542
18:00+10nw58535 0.0 10231676
21:00+5nw35715 0.0 102670
10 may, mon
mon1000:00+4nw33765 0.0 102738
03:00+3nnw33825 0.0 102832
06:00+3n23825 0.0 103056
09:00+10ne23573 0.0 1030406
12:00+14n23394 0.0 10301529
15:00+15nne34375 0.0 10281888
18:00+15nne35520 0.0 1028563
21:00+8ne33730 0.0 102923
11 may, tue
tue1100:00+6ne36820 0.0 102985
03:00+5nne39830 0.0 1028139
06:00+5nne413800 0.0 1028279
09:00+11ne712550 0.0 1026687
12:00+15ene710515 0.0 1025944
15:00+17ene786035 0.0 10231112
18:00+14e61278100 0.0 10251012
21:00+11e49860 0.0 1024319
12 may, wed
wed1200:00+8ene359451 0.0 102494
03:00+9e2691100 0.1 1022246
06:00+8e1296100 1.5 1021106
09:00+11ese478357 1.9 1021625
12:00+14ese7106295 0.2 10201530
15:00+14ese686797 0.8 10191293
18:00+12se61082100 0.9 1020785
21:00+9e2693100 1.1 1018262